EHI
0 0 0 0 0 0 0 0 0 0 0 0 0 0 0 0 0 0 0 0 0 0 0 0 0 0 0 0 0 0 0 0 0 0 0 0 0 0
0 0 0 0 0 0 0 0 0 0 0 0 0 0 0 0 0 0 0 0 0 0 0 0 0 0 0 0 0 0 0 0 0 0 0 0 0 0
0 0 0 0 0 0 0 0 0 0 0 0 0 0 0 0 0 0 0 0 0 0 0 0 0 0 0 0 0 0 0 0 0 0 0 0 0 0
0 0 0 0 0 0 0 0 0 0 0 0 0 0 0 0 0 0 0 0 0 0 0 0 0 0 0 0 0 0 0 0 0 0 0 0 0 0
0 0 0 0 0 0 0 0 0 0 0 0 0 0 0 0 0 0 0 0 0 0 0 0 0 0 0 0 0 0 0 0 0 0 0 0 0 0
0 0 0 0 0 0 0 0 0 0 0 0 0 0 0 0 0 0 0 0 0 0 0 0 0 0 0 0 0 0 0 0 0 0 0 0 0 0
0 0 0 0 0 0 0 0 0 0 0 0 0 0 0 0 0 0 0 0 0 0 0 0 0 0 0 0 0 0 0 0 0 0 0 0 0 0
0 0 0 0 0 0 0 0 0 0 0 0 0 0 0 0 0 0 0 0 0 0 0 0 0 0 0 0 0 0 0 0 0 0 0 0 0 0
0 0 0 0 0 0 0 0 0 0 0 0 0 0 0 0 0 0 0 0 0 0 0 0 0 0 0 0 0 0 0 0 0 0 0 0 0 0
0 0 0 0 0 0 0 0 0 0 0 0 0 0 0 0 0 0 0 0 0 0 0 0 0 0 0 0 0 0 0 0 0 0 0 0 0 0
0 0 0 0 0 0 0 0 0 0 0 0 0 0 0 0 0 0 0 0 0 0 0 0 0 0 0 0 0 0 0 0 0 0 0 0 0 0
0 0 0 0 0 0 0 0 0 0 0 0 0 0 0 0 0 0 0 0 0 0 0 0 0 0 0 0 0 0 0 0 0 0 0 0 0 0
0 0 0 0 0 0 0 0 0 0 0 0 0 0 0 0 0 0 0 0 0 0 0 0 0 0 0 0 0 0 0 0 0 0 0 0 0 0
0 0 0 0 0 0 0 0 0 0 0 0 0 0 0 0 0 0 0 0 0 0 0 0 0 0 0 0 0 0 0 0 0 0 0 0 0 0
0 0 0 0 0 0 0 0 0 0 0 0 0 0 0 0 0 0 0 0 0 0 0 0 0 0 0 0 0 0 0 0 0 0 0 0 0 0
0 0 0 0 0 0 0 0 0 0 0 0 0 0 0 0 0 0 0 0 0 0 0 0 0 0 0 0 0 0 0 0 0 0 0 0 0 0
0 0 0 0 0 0 0 0 0 0 0 0 0 0 0 0 0 0 0 0 0 0 0 0 0 0 0 0 0 0 0 0 0 0 0 0 0 0
0 0 0 0 0 0 0 0 0 0 0 0 0 0 0 0 0 0 0 0 0 0 0 0 0 0 0 0 0 0 0 0 0 0 0 0 0 0
0 0 0 0 0 0 0 0 0 0 0 0 0 0 0 0 0 0 0 0 0 0 0 0 0 0 0 0 0 0 0 0 0 0 0 0 0 0
0 0 0 0 0 0 0 0 0 0 0 0 0 0 0 0 0 0 0 0 0 0 0 0 0 0 0 0 0 0 0 0 0 0 0 0 0 0
0 0 0 0 0 0 0 0 0 0 0 0 0 0 0 0 0 0 0 0 0 0 0 0 0 0 0 0 0 0 0 0 0 0 0 0 0 0
0 0 0 0 0 0 0 0 0 0 0 0 0 0 0 0 0 0 0 0 0 0 0 0 0 0 0 0 0 0 0 0 0 0 0 0 0 0
0 0 0 0 0 0 0 0 0 0 0 0 0 0 0 0 0 0 0 0 0 0 0 0 0 0 0 0 0 0 0 0 0 0 0 0 0 0
Wind_Speed
7 8 8 7 7 7 7 8 8 9 10 9 7 7 6 7 7 9 10 11 13 14 15 15 15 16 16 17 16 16 17 15 15 16 16 17 17 17
6 8 9 7 7 7 7 8 8 10 11 8 8 8 8 7 9 10 11 12 14 16 16 16 16 16 17 16 16 16 16 16 15 16 17 17 17 17
8 9 10 10 8 7 7 8 8 9 11 10 8 8 10 10 9 10 10 10 10 14 15 16 17 17 17 17 17 17 15 16 15 16 17 17 17 16
9 10 11 9 11 9 8 9 9 9 10 12 9 8 11 10 10 10 9 9 10 12 14 15 16 17 17 17 16 15 15 15 16 16 17 16 16 16
10 11 11 11 12 10 10 10 9 9 9 10 10 8 8 8 9 10 10 9 10 10 12 13 15 15 16 15 15 15 15 15 16 16 16 15 15 15
10 11 11 12 12 12 10 11 10 10 9 9 9 8 7 8 8 8 8 7 8 8 9 10 11 13 15 15 15 14 14 14 15 15 14 13 13 14
11 11 11 12 14 12 10 10 10 9 9 9 9 8 8 7 7 7 8 8 8 7 7 7 7 7 8 11 13 13 13 13 13 13 13 13 12 13
12 11 11 12 13 15 15 15 14 12 11 10 9 10 11 10 8 7 7 8 9 5 6 7 6 7 7 7 8 11 12 12 12 12 11 11 11 12
12 11 9 9 11 11 13 14 15 16 16 13 13 13 12 10 9 10 9 9 9 6 6 8 6 7 7 6 8 10 11 12 12 11 11 10 10 10
11 11 11 11 10 11 11 12 13 13 14 13 13 14 12 11 10 10 10 9 9 7 6 8 7 7 6 6 7 9 10 10 11 11 10 9 9 8
10 10 11 11 12 12 11 12 13 12 12 15 16 15 15 15 12 7 7 7 8 7 5 6 6 5 6 5 4 6 7 8 9 9 9 8 8 7
8 9 10 11 12 13 11 12 13 12 10 10 10 11 11 11 13 11 9 7 7 6 5 4 4 3 4 4 3 3 3 4 6 7 8 8 7 5
8 7 7 11 12 13 13 12 13 11 9 9 8 8 7 7 7 7 7 7 7 6 5 4 4 4 4 4 4 3 3 2 2 3 4 5 6 5
9 8 8 11 13 14 12 12 13 11 7 7 7 7 6 6 5 5 5 5 6 7 6 6 4 4 4 4 3 2 2 2 2 2 2 2 3 5
8 11 13 14 13 11 11 12 10 7 6 6 6 6 5 5 5 4 4 4 4 5 5 6 4 4 4 4 3 3 2 2 2 2 2 2 2 2
8 10 12 12 10 10 9 7 5 5 5 5 5 5 4 4 4 3 3 3 3 3 2 3 3 3 3 3 3 3 3 2 2 1 1 1 2 2
9 7 6 6 6 5 5 5 4 4 4 4 5 4 4 3 3 3 3 2 3 3 2 1 1 1 2 2 3 2 2 2 1 1 1 1 2 2
10 7 6 6 6 6 5 5 4 4 4 4 4 4 4 3 3 2 2 2 2 2 2 1 0 0 1 2 2 3 2 1 1 1 1 1 2 2
7 6 6 6 6 5 5 5 5 5 4 4 4 4 3 3 2 2 2 2 2 2 2 1 2 1 1 2 1 1 1 1 0 0 1 1 2 1
5 6 6 6 5 5 5 5 5 4 4 4 4 4 3 2 2 2 2 2 2 1 1 1 2 2 2 2 1 1 1 1 1 1 0 0 1 1
6 6 6 6 6 5 5 5 5 4 4 4 4 4 3 2 2 2 2 2 2 1 2 2 2 1 0 1 1 1 2 1 0 1 1 0 0 0
6 6 6 6 6 6 5 5 5 5 4 4 3 3 2 2 2 2 2 1 1 1 1 1 1 0 1 1 1 1 1 2 3 2 1 1 1 1
7 7 6 6 6 6 5 5 6 5 4 3 3 3 2 2 2 2 1 1 1 1 1 1 0 1 1 1 1 1 1 1 1 2 2 2 1 0
Wind_Direction
253 256 257 257 255 254 254 254 262 273 272 272 268 262 265 268 268 267 269 265 263 264 263 263 263 262 263 263 261 261 258 252 249 243 245 247 249 249
252 253 255 257 258 256 254 254 253 261 272 275 277 275 272 270 268 268 268 269 260 260 261 261 260 260 260 259 258 259 256 248 248 243 244 246 248 249
254 255 256 259 260 259 257 255 254 254 264 275 277 279 276 271 271 270 270 269 265 259 260 260 259 258 257 256 255 254 253 250 248 244 243 245 246 247
260 260 260 261 261 261 258 257 257 257 260 271 276 276 275 273 273 272 273 272 272 266 261 260 258 255 253 253 252 248 248 250 249 246 242 244 245 242
264 262 262 262 262 261 260 259 259 260 261 264 272 275 277 275 275 274 274 275 277 274 265 261 258 255 255 252 249 245 243 247 246 244 241 240 241 241
264 264 263 261 261 263 262 261 261 261 260 262 266 271 275 277 273 274 278 279 281 282 273 269 264 259 255 253 249 242 240 244 244 239 234 233 236 238
267 264 262 261 262 261 262 262 261 260 259 260 264 268 269 272 268 274 276 283 283 280 278 274 270 264 257 250 243 238 237 239 238 236 232 232 234 236
271 269 266 260 260 260 260 262 261 259 259 259 262 261 264 267 272 271 272 277 281 273 273 278 276 271 268 260 245 234 231 234 235 233 233 235 237 239
271 269 266 263 262 262 261 261 260 258 255 256 260 261 264 263 264 267 265 269 273 275 276 276 275 271 269 264 249 236 232 233 233 232 230 234 239 240
274 270 267 266 261 263 266 265 263 260 257 254 256 260 263 262 257 260 264 273 280 274 265 270 273 274 279 272 258 243 235 233 231 228 227 231 233 233
281 277 271 267 268 268 266 266 267 266 262 258 260 263 263 262 258 259 257 259 272 275 265 261 269 281 285 278 263 248 243 239 234 227 223 224 226 231
289 283 271 267 271 270 266 266 266 267 271 271 267 262 258 253 248 244 243 244 260 267 254 252 264 278 280 275 278 273 246 229 229 227 224 221 221 230
292 291 286 278 275 275 273 267 268 273 272 269 268 265 261 256 251 249 245 239 247 256 243 244 259 261 259 274 286 284 264 245 228 220 214 214 217 224
294 294 295 295 288 284 279 276 277 275 268 267 265 264 262 261 259 256 258 258 261 262 253 244 246 242 246 265 274 276 274 263 248 244 236 206 215 226
295 299 300 299 296 288 283 283 279 270 264 261 262 267 269 267 267 264 266 269 277 276 259 254 245 236 237 242 255 261 272 269 251 241 237 236 230 219
300 301 301 298 292 290 289 284 277 273 270 265 269 273 276 274 265 259 261 261 274 293 294 276 258 238 241 247 239 251 257 247 238 244 244 258 252 238
306 300 299 299 298 296 293 289 286 281 279 277 274 277 278 270 266 260 253 253 259 270 295 323 342 329 276 252 238 236 240 234 225 227 227 256 255 234
307 296 296 296 297 297 297 296 294 289 285 283 281 273 266 258 258 255 243 238 241 254 258 255 221 19 343 324 272 234 230 230 207 200 224 251 271 257
309 302 298 297 297 296 295 295 296 296 293 287 282 278 268 260 252 250 238 235 243 242 248 242 238 211 209 274 327 270 209 205 161 192 246 256 264 272
312 308 306 304 303 303 300 298 299 298 294 288 283 280 268 255 250 249 239 231 232 231 243 258 257 233 216 237 262 317 287 211 187 204 271 346 336 332
315 313 313 312 307 304 302 302 301 296 294 292 289 285 269 259 253 248 244 239 232 218 222 258 272 250 235 121 111 10 13 28 287 222 201 185 289 288
315 314 313 312 311 307 304 303 301 298 296 293 294 296 286 274 263 253 243 226 219 216 239 285 296 209 152 159 151 102 23 30 48 48 322 246 203 188
318 316 314 315 314 313 310 308 306 304 303 300 301 301 297 284 273 258 232 213 200 186 165 146 82 85 106 130 132 101 79 36 28 47 36 32 23 245